Location: Bratislava
(48.1500°N, 17.1170°E)
Time: 03:49:38
(UTC+02:00)

Tiangong 1 - Visible Passes

Search period start: 25 June 2017 00:00
Search period end: 05 July 2017 00:00
Orbit: 321 x 344 km, 42.8° (Epoch: 24 June)

Date Brightness Start Highest point End Pass type
(mag) Time Alt. Az. Time Alt. Az. Time Alt. Az.
25 Jun 1.9 22:48:16 10° WSW 22:50:34 25° S 22:50:34 25° S visible
26 Jun 2.7 23:07:39 10° WSW 23:08:51 17° SW 23:08:51 17° SW visible
27 Jun 2.0 21:51:22 10° WSW 21:53:47 25° S 21:55:54 12° SE visible
28 Jun 2.4 22:10:39 10° WSW 22:12:49 20° SSW 22:13:59 16° SSE visible
29 Jun 2.9 22:30:17 10° SW 22:31:46 13° SSW 22:32:02 13° SSW visible
